Regional Weather Roundup
Issued by NWS

Home | Current Version | Previous Version | Text Only | Print | Product List | Glossary On
Versions: 1 2 3 4 5 6 7 8 9 10 11 12 13 14 15 16 17 18 19 20 21 22 23 24 25 26 27 28 29 30 31 32 33 34 35 36 37 38 39 40 41 42 43 44 45 46 47 48 49 50
000
ASUS44 KLUB 230901
RWRTX
WEST TEXAS WEATHER ROUNDUP
NATIONAL WEATHER SERVICE LUBBOCK TX
400 AM CDT SAT MAY 23 2015

NOTE: "FAIR" INDICATES FEW OR NO CLOUDS BELOW 12,000 FEET WITH NO
SIGNIFICANT WEATHER AND/OR OBSTRUCTIONS TO VISIBILITY.

TXZ004-006>008-010-012-014-016-OKZ002-231000-
TEXAS PANHANDLE/OKLAHOMA PANHANDLE

CITY           SKY/WX    TMP DP  RH WIND       PRES   REMARKS
AMARILLO       FOG       57  57 100 SE18G24   30.02F VSB 3/4
BORGER         CLOUDY    59  56  89 SE9       30.04R
CANADIAN       CLOUDY    56  56  99 SE7       30.05S FOG
DALHART        TSTM      59  57  93 S22G33    29.99F FOG
DUMAS          CLOUDY    57  57  98 S9        30.04R FOG
GUYMON         CLOUDY    57  57 100 SE12      30.02R FOG
$$

TXZ026-029-035-045-048-231000-
SOUTHERN PANHANDLE/SOUTH PLAINS/ROLLING PLAINS

CITY           SKY/WX    TMP DP  RH WIND       PRES   REMARKS
CHILDRESS      LGT RAIN  59  59 100 E9        30.05F VSB 1/2
LUBBOCK        CLOUDY    64  64 100 SE21G30   30.00F FOG
$$

TXZ052-054-060>062-072-078-127-140-154-169-231000-
PERMIAN BASIN/CONCHO VALLEY/BIG COUNTRY/EDWARDS PLATEAU

CITY           SKY/WX    TMP DP  RH WIND       PRES   REMARKS
ABILENE        MOCLDY    72  68  87 SE17      30.01F
BRADY          CLOUDY    72  72 100 SE9       30.04F
JUNCTION       CLOUDY    74  69  85 SE9G20    30.02F
MIDLAND        CLOUDY    70  66  87 S12       29.96F
ODESSA         LGT RAIN  70  64  81 S13       29.96F
SAN ANGELO     CLOUDY    73  69  87 SE12      29.98F
SWEETWATER     CLOUDY    72  70  94 SE16G23   30.03S
WINK           CLEAR     69  64  84 SE14      29.91F
$$

TXZ055-058-074-075-080-082-231000-
FAR WEST/SOUTHWEST MOUNTAINS/TRANS PECOS

CITY           SKY/WX    TMP DP  RH WIND       PRES   REMARKS
DRYDEN           N/A     75  58  55 S20G25    29.94S
EL PASO        CLOUDY    72  21  14 NW8       29.96R
FORT STOCKTON  MOCLDY    73  56  54 S25G37    29.92F
GUADALUPE PASS PTCLDY    61  56  83 SW8       30.05S
MARFA          CLOUDY   N/A N/A N/A S10       30.10R
$$

TXZ014-016-019-021>030-083-231000
TEXAS TECH WEST TEXAS MESONET/TEXAS PANHANDLE/NORTHERN SOUTH PLAINS

CITY           SKY/WX    TMP DP  RH WIND       PRES   REMARKS
ABERNATHY 5ENE   N/A     63  62  96 SE14      30.03F
AMARILLO 9NNE    N/A     58  57  99 SE15      30.01F
AMARILLO 7SSE    N/A     57  57  99 SE15      30.03F
AMHERST 1NE      N/A     62  62  98 SE21      29.97F
BOOTLEG 11WNW  LGT RAIN  49  48  97 W15       30.09R
CANADIAN 6E      N/A     55  55 100 E12       30.04S
CAPROCK CYN SP   N/A     57  57 100 NE2       30.06R
CHILDRESS 2NNE   N/A     58  57  96 E8        30.05S
CLARENDON 2WSW   N/A     56  55  95 E10       30.05R
CLAUDE 12SW      N/A     55  55 100 SE14      30.03F
DIMMITT 2NE      N/A     60  60  97 SE17      30.00F
FLOYDADA 2NNE    N/A     61  60  98 SE9       30.03S
FRIONA 2NE       N/A     61  60  96 SE21      30.00F
GOODLETT 3W      N/A     60  58  94 E8        30.03F
HART 3N          N/A     61  60  97 SE18      30.00F
HEREFORD 2NW     N/A     60  59  94 SE12      30.01F
MCLEAN 1E      LGT RAIN  51  51  98 SE13      30.04F
MEMPHIS 1NE      N/A     57  56  98 E5        30.04F
MULESHOE 2SSW  RAIN      62  62  97 SE18      29.99S
OLTON 6S         N/A     63  61  94 SE21      29.99F
PALO DURO SP     N/A     57  56  98 SE9       30.04F
PAMPA 2E         N/A     54  53  99 SE15      30.05R
PLAINVIEW 1S     N/A     62  61  97 SE13      30.01F
SILVERTON 7ESE   N/A     56  56  98 E9        30.06R
TULIA 2ENE       N/A     58  58  97 E13       30.02F
UMBARGER 3NNE    N/A     58  58  99 SE13      30.02F
$$

TXZ033>036-039>041-045>048-231000
TEXAS TECH WEST TEXAS MESONET/SOUTH PLAINS

CITY           SKY/WX    TMP DP  RH WIND       PRES   REMARKS
AIKEN 3WSW       N/A     61  61 100 SE16      30.03F
ANDREWS 2NE      N/A     68  63  86 SE14      29.97F
ANTON 6SSW       N/A     63  62  96 SE22      29.99S
BROWNFIELD 2S    N/A     63  62  97 SE14      30.00S
DENVR CTY 7WNW   N/A     64  62  94 SE20      29.96S
GAIL 2ESE        N/A     67  65  93 SE9       30.00R
LAMESA 2SE       N/A     68  65  90 SE12      30.01F
LEVELLAND 4S     N/A     64  62  94 SE18      29.99S
LUBBOCK 3WNW     N/A     64  63  96 SE14      30.02S
MORTON 1ENE      N/A     63  62  98 SE18      29.97F
ODONNELL 1N      N/A     65  63  93 SE13      30.01F
PLAINS 3N        N/A     64  63  95 SE17G29   29.96F
RALLS 1SE        N/A    N/A N/A N/A SE15      30.04R
REESE CENTER     N/A     63  62  98 SE21      30.00F
SEAGRAVES 1SW    N/A     65  64  95 SE8       29.99S
SEMINOLE 2NNE    N/A     66  63  90 S10       29.99R
SLATON 2NE       N/A     65  64  97 SE14      30.02S
SNYDER 3E        N/A     68  66  93 SE15      30.00S
SUNDOWN 8SW      N/A     64  63  97 SE24G39   29.95F
TAHOKA 3NNE      N/A     65  65  99 SE18      30.01S
WOLFFORTH 6SSW   N/A     64  64  98 SE16      30.00F
$$

TXZ031-032-036>038-042>044-231000-
TEXAS TECH WEST TEXAS MESONET/ROLLING PLAINS

CITY           SKY/WX    TMP DP  RH WIND       PRES   REMARKS
ASPERMONT 3NE    N/A     68  67  96 E9        30.00S
FLUVANNA 3WNW    N/A     68  65  90 SE16      30.01R
GRAHAM 5SSW      N/A     66  65  96 SE14      30.01R
GUTHRIE 10WSW    N/A     66  65  96 E8        30.01S
HASKELL 1NW      N/A     66  64  94 E9        30.00F
JAYTON 1SSE      N/A     67  66  96 E10       30.00F
KNOX CITY 3NW    N/A     64  61  90 E12       30.01F
LK A HENRY 1NW   N/A     67  67  99 SE5       30.00S
ODELL 4ENE       N/A     59  59 100 E12       30.05F
PADUCAH 10SW     N/A     61  61  97 E6        30.03S
POST 1NE         N/A     66  65  96 SE5       30.02R
RRING SPRGS 3N   N/A     61  61  98 NE3       30.04S
SEYMOUR 3NW      N/A     63  61  93 E9        30.02F
SPUR 1W          N/A     65  64  96 E7        30.01S
WEINERT 2NNE     N/A     64  64  98 E10       30.01F
WHITE RVR 6NE    N/A     65  65  97 E10       30.02S
$$

TXZ052-054-060>062-072-078-127-140-154-169-231000-
TEXAS TECH WEST TEXAS MESONET/PERMIAN BASIN/
CONCHO VALLEY/BIG COUNTRY/EDWARDS PLATEAU

CITY           SKY/WX    TMP DP  RH WIND       PRES   REMARKS
COYANOSA 2N      N/A     68  65  89 E7        29.93S
JUNCTION 1SSW    N/A     74  70  87 S6        30.03F
MERTZON 3NNE     N/A     72  68  88 SE12      29.97F
SAN ANGELO 7NW   N/A     73  67  83 SE10      30.00F
STRLNG CT 4WSW   N/A     70  67  91 SE15      29.98F
ST LAWRNCE 5SW   N/A     71  66  84 SE23      29.97S
SWEETWATR 11SW   N/A     70  68  93 SE20      30.00F
WALL 1E          N/A     72  66  82 SE15      30.00F
$$

TXZ055-058-074-075-080-082-231000-
TEXAS TECH WEST TEXAS MESONET/FAR WEST/SOUTHWEST MOUNTAINS/TRANS PECOS

CITY           SKY/WX    TMP DP  RH WIND       PRES   REMARKS
PRSMN GAP BBNP   N/A     73  59  63 S5        30.00S
$$


USA.gov is the U.S. government's official web portal to all federal, state and local government web resources and services.